Home > Weather > Germany > Pirna > Past weeks

Flag for Germany Weather past 2 weeks in Pirna, Saxony, Germany

41 °F

Light rain. Overcast.

Feels Like: 37 °F
Forecast: 37 / 47 °F
Wind: 6 mph from Southwest

Location: Dresden-Klotzsche

Current Time: Dec 2, 2015 at 1:30:49 AM

Latest Report: Dec 2, 2015 at 12:20 AM

Visibility: N/A

Pressure: 30.24 "Hg

Humidity: 93%

Dew point: 39 °F

Location of PirnaLocation

Historic Weather in Pirna — Graph


Pirna temperature yesterday

Maximum temperature yesterday: 50 °F (at 2:50 AM)
Minimum temperature yesterday: 39 °F (at 6:50 AM)
Average temperature yesterday: 43 °F

Past Weeks' High & Low Weather Summary

High59 °F (Nov 18, 1:50 AM)100% (Nov 17, 6:50 AM)30.24 "Hg (Nov 17, 6:50 AM)
Low25 °F (Nov 28, 3:50 AM)53% (Nov 30, 3:20 PM)29.36 "Hg (Nov 21, 12:20 PM)
Average40 °F83%29.84 "Hg
* Reported Nov 16 11:20 PM — Dec 1 11:50 PM, Pirna, Weather by CustomWeather, © 2015

Note: Actual official high and low records may vary slightly from our data, if they occured in-between our weather recording intervals... More about our weather records


Pirna weather history for previous 24 hours

Time TempWeatherWind HumidityBarometerVisibility
11:50 PM
Tue, Dec 1
41 °FLight rain. Overcast.6 mph93%30.24 "HgN/A
11:20 PM41 °FLight rain. Passing clouds.7 mph87%30.24 "HgN/A
10:50 PM41 °FLight rain. Passing clouds.7 mph87%30.24 "HgN/A
10:20 PM41 °FLight rain. Passing clouds.6 mph87%30.24 "HgN/A
9:50 PM43 °FPassing clouds.8 mph81%30.24 "HgN/A
9:20 PM41 °FPassing clouds.7 mph87%30.24 "HgN/A
8:50 PM41 °FPartly cloudy.7 mph81%30.24 "HgN/A
8:20 PM41 °FPassing clouds.7 mph81%30.24 "HgN/A
7:50 PM41 °FPartly cloudy.6 mph81%30.24 "HgN/A
7:20 PM43 °FPassing clouds.7 mph76%30.24 "HgN/A
6:50 PM41 °FPassing clouds.6 mph81%30.24 "HgN/A
6:20 PM41 °FPassing clouds.6 mph81%30.21 "HgN/A
5:50 PM41 °FPassing clouds.7 mph81%30.21 "HgN/A
5:20 PM41 °FPassing clouds.6 mph81%30.21 "HgN/A
4:50 PM41 °FPassing clouds.6 mph81%30.21 "HgN/A
4:20 PM43 °FPassing clouds.7 mph76%30.18 "HgN/A
3:50 PM43 °FPartly sunny.8 mph76%30.18 "HgN/A
3:20 PM43 °FBroken clouds.8 mph81%30.18 "HgN/A
2:50 PM45 °FPartly sunny.10 mph71%30.18 "HgN/A
2:20 PM45 °FPartly sunny.13 mph71%30.15 "HgN/A
1:50 PM45 °FBroken clouds.13 mph71%30.15 "HgN/A
1:20 PM45 °FBroken clouds.13 mph71%30.15 "HgN/A
12:50 PM45 °FBroken clouds.13 mph71%30.12 "HgN/A
12:20 PM45 °FPartly sunny.14 mph71%30.12 "HgN/A
11:50 AM45 °FPartly sunny.12 mph76%30.12 "HgN/A
11:20 AM45 °FSprinkles. Broken clouds.14 mph76%30.12 "HgN/A
10:50 AM43 °FBroken clouds.12 mph81%30.12 "HgN/A
10:20 AM43 °FPartly sunny.13 mph81%30.12 "HgN/A
9:50 AM43 °FPassing clouds.12 mph81%30.09 "HgN/A
7:50 AM41 °FBroken clouds.7 mph87%30.07 "HgN/A
7:20 AM41 °FPartly cloudy.7 mph87%30.04 "HgN/A
6:50 AM39 °FPassing clouds.9 mph93%30.01 "HgN/A
6:20 AM41 °FPassing clouds.13 mph87%30.01 "HgN/A
5:50 AM43 °FPassing clouds.16 mph87%29.98 "HgN/A
5:20 AM43 °FPartly cloudy.17 mph87%29.92 "HgN/A
4:50 AM46 °FLight rain. Overcast.17 mph87%29.89 "HgN/A
4:20 AM46 °FLight rain. Overcast.23 mph93%29.86 "HgN/A
3:50 AM50 °FRain. Mostly cloudy.21 mph88%29.80 "Hg6 mi
3:20 AM48 °FLight rain. Mostly cloudy.18 mph94%29.80 "HgN/A
2:50 AM50 °FLight rain. Mostly cloudy.21 mph88%29.77 "HgN/A
1:50 AM48 °FLight rain. Mostly cloudy.20 mph87%29.74 "HgN/A
Weather by CustomWeather, © 2015

See weather overviewHow to use our weather pages